CW3728 Weather Reports


time (UTC)temp
C
wind
direction
speed
KPH
gust
KPH
rain 1hr
cm
rain 24hr
cm
rain mn
cm
humidity
%
barometer
mb
20260507015036 17 13 0.0 0.0 0.00 0.00 0.00 80 1008.4
20260507014541 17 21 0.0 0.0 0.00 0.00 0.00 80 1008.3
20260507014105 18 37 0.0 0.0 0.00 0.00 0.00 80 1008.3
20260507013606 18 36 0.0 0.0 0.00 0.00 0.00 80 1008.3
20260507013108 18 34 0.0 0.0 0.00 0.00 0.00 79 1007.9
20260507012529 18 28 0.0 0.0 0.00 0.00 0.00 79 1007.9
20260507012052 18 54 0.0 0.0 0.00 0.00 0.00 79 1007.9
20260507011535 18 19 0.0 0.0 0.00 0.00 0.00 79 1007.5
20260507011050 18 351 0.0 0.0 0.00 0.00 0.00 79 1007.5
20260507010608 18 15 0.0 0.0 0.00 0.00 0.00 79 1007.5
20260507010030 18 34 0.0 0.0 0.00 0.00 0.00 78 1007.8
20260507005532 18 300 0.0 0.0 0.00 0.00 0.00 78 1007.8
20260507005034 18 338 0.0 0.0 0.00 0.00 0.00 78 1007.8
20260507004537 18 7 0.0 0.0 0.00 0.00 0.00 78 1007.4
20260507004038 18 39 0.0 0.0 0.00 0.00 0.00 77 1007.4
20260507003539 18 26 0.0 0.0 0.00 0.00 0.00 77 1007.4
20260507003042 18 360 0.0 0.0 0.00 0.00 0.00 76 1007.2
20260507002535 19 318 0.0 0.0 0.00 0.00 0.00 76 1007.3
20260507002042 19 49 0.0 0.0 0.00 0.00 0.00 76 1007.3
20260507001528 19 355 0.0 0.0 0.00 0.00 0.00 76 1007.2
20260507001045 19 34 0.0 0.0 0.00 0.00 0.00 75 1007.2
20260507000538 19 30 0.0 0.0 0.00 0.00 0.00 75 1007.2
20260507000029 19 6 0.0 0.0 0.00 0.00 0.00 75 1006.8
20260506235538 20 1 0.0 0.0 0.00 0.00 0.00 75 1006.8
20260506235044 20 1 0.0 0.0 0.00 0.00 0.00 75 1006.8
20260506234549 20 302 0.0 0.0 0.00 0.00 0.00 73 1006.7
20260506234030 20 8 0.0 0.0 0.00 0.00 0.00 73 1006.8
20260506233542 20 6 0.0 0.0 0.00 0.00 0.00 72 1006.8
20260506233046 21 21 0.0 0.0 0.00 0.00 0.00 72 1006.6
20260506232536 21 352 0.0 0.0 0.00 0.00 0.00 71 1006.6
20260506232039 21 26 0.0 0.0 0.00 0.00 0.00 71 1006.6
20260506231545 21 360 0.0 0.0 0.00 0.00 0.00 71 1006.3
20260506231038 22 360 0.0 0.0 0.00 0.00 0.00 68 1006.3
20260506230532 22 327 0.0 0.0 0.00 0.00 0.00 67 1006.3
20260506230035 23 360 0.0 0.0 0.00 0.00 0.00 68 1006.2
20260506225536 23 321 0.0 0.0 0.00 0.00 0.00 66 1006.3
20260506225059 23 103 0.0 0.0 0.00 0.00 0.00 68 1006.3
20260506224541 23 240 0.0 0.0 0.00 0.00 0.00 66 1006.0
20260506224107 23 44 0.0 0.0 0.00 0.00 0.00 66 1006.0
20260506223527 25 61 0.0 0.0 0.00 0.00 0.00 65 1006.0
20260506223030 24 30 0.0 0.0 0.00 0.00 0.00 68 1005.8
20260506222535 24 86 0.0 0.0 0.00 0.00 0.00 67 1005.8
20260506222038 25 40 0.0 0.0 0.00 0.00 0.00 63 1005.8
20260506221550 25 78 0.0 0.0 0.00 0.00 0.00 65 1005.7
20260506221043 25 293 0.0 0.0 0.00 0.00 0.00 66 1005.7
20260506220539 25 26 0.0 0.0 0.00 0.00 0.00 66 1005.7
20260506220042 25 17 0.0 0.0 0.00 0.00 0.00 66 1005.8
20260506215527 25 360 0.0 0.0 0.00 0.00 0.00 69 1005.8
20260506215030 25 44 0.0 0.0 0.00 0.00 0.00 67 1005.8
20260506214551 25 293 0.0 0.0 0.00 0.00 0.00 68 1005.5
20260506214033 25 21 0.0 0.0 0.00 0.00 0.00 68 1005.5
20260506213535 25 301 0.0 0.0 0.00 0.00 0.00 67 1005.5
20260506213038 25 307 0.0 0.0 0.00 0.00 0.00 67 1005.3
20260506212601 26 332 0.0 0.0 0.00 0.00 0.00 67 1005.3
20260506212025 26 330 0.0 0.0 0.00 0.00 0.00 66 1005.3
20260506211529 26 25 0.0 0.0 0.00 0.00 0.00 68 1005.2
20260506211056 26 5 0.0 0.0 0.00 0.00 0.00 66 1005.2
20260506210606 26 293 0.0 0.0 0.00 0.00 0.00 66 1005.2
20260506210039 27 257 0.0 0.0 0.00 0.00 0.00 67 1005.4
20260506205526 26 46 0.0 0.0 0.00 0.00 0.00 70 1005.4
20260506205032 26 27 0.0 0.0 0.00 0.00 0.00 71 1005.3
20260506204527 25 17 0.0 0.0 0.00 0.00 0.00 72 1005.4
20260506204030 25 34 0.0 0.0 0.00 0.00 0.00 72 1005.4
20260506203540 25 32 0.0 0.0 0.00 0.00 0.00 74 1005.4
20260506203032 25 75 0.0 0.0 0.00 0.00 0.00 73 1005.4
20260506202534 25 11 0.0 0.0 0.00 0.00 0.00 71 1005.4
20260506202036 26 25 0.0 0.0 0.00 0.00 0.00 72 1005.4
20260506201547 26 20 0.0 0.0 0.00 0.00 0.00 69 1005.1
20260506201039 27 20 0.0 0.0 0.00 0.00 0.00 73 1005.2
20260506200529 28 37 0.0 0.0 0.00 0.00 0.00 72 1005.2
20260506200052 28 30 0.0 0.0 0.00 0.00 0.00 71 1005.0
20260506195539 28 36 0.0 0.0 0.00 0.00 0.00 71 1005.1
20260506195042 28 38 0.0 0.0 0.00 0.00 0.00 69 1005.1
20260506194527 28 33 0.0 0.0 0.00 0.00 0.00 70 1005.1
20260506194031 28 38 0.0 0.0 0.00 0.00 0.00 72 1005.1
20260506193545 28 108 0.0 0.0 0.00 0.00 0.00 70 1005.0
20260506193025 28 53 0.0 0.0 0.00 0.00 0.00 70 1005.2
20260506192533 28 79 0.0 0.0 0.00 0.00 0.00 69 1005.2
20260506192036 29 66 0.0 0.0 0.00 0.00 0.00 70 1005.2
20260506191530 29 66 0.0 0.0 0.00 0.00 0.00 69 1005.4
20260506191044 29 69 0.0 0.0 0.00 0.00 0.00 69 1005.4
20260506190526 30 360 0.0 0.0 0.00 0.00 0.00 71 1005.4
20260506190032 29 360 0.0 0.0 0.00 0.00 0.00 75 1005.5
20260506185538 28 360 0.0 0.0 0.00 0.00 0.00 75 1005.5
20260506185033 28 97 0.0 0.0 0.00 0.00 0.00 74 1005.4
20260506184539 28 93 0.0 0.0 0.00 0.00 0.00 74 1005.6
20260506184042 28 92 0.0 0.0 0.00 0.00 0.00 73 1005.6
20260506183605 28 91 0.0 0.0 0.00 0.00 0.00 71 1005.6
20260506183027 28 41 0.0 0.0 0.00 0.00 0.00 74 1005.6
20260506182532 28 360 0.0 0.0 0.00 0.00 0.00 72 1005.7
20260506182038 28 26 0.0 0.0 0.00 0.00 0.00 73 1005.6
20260506181543 28 360 0.0 0.0 0.00 0.00 0.00 75 1005.7
20260506181050 28 25 0.0 0.0 0.00 0.00 0.00 77 1005.7
20260506180542 27 25 0.0 0.0 0.00 0.00 0.00 76 1005.7
20260506180044 27 360 0.0 0.0 0.00 0.00 0.00 74 1005.7
20260506175548 27 16 0.0 0.0 0.00 0.00 0.00 75 1005.7
20260506175037 26 25 0.0 0.0 0.00 0.00 0.00 79 1005.7
20260506174542 26 360 0.0 0.0 0.00 0.00 0.00 79 1005.8
20260506174028 25 14 0.0 0.0 0.00 0.00 0.00 78 1005.8
20260506173551 25 13 0.0 0.0 0.00 0.00 0.00 78 1005.8
20260506173035 25 12 0.0 0.0 0.00 0.00 0.00 78 1006.1
20260506172529 25 18 0.0 0.0 0.00 0.00 0.00 80 1006.1
20260506172032 24 28 0.0 0.0 0.00 0.00 0.00 81 1006.1
20260506171533 24 16 0.0 0.0 0.00 0.00 0.00 79 1006.2
20260506171046 24 29 0.0 0.0 0.00 0.00 0.00 79 1006.2
20260506170538 24 31 0.0 0.0 0.00 0.00 0.00 78 1006.2
20260506170041 25 360 0.0 0.0 0.00 0.00 0.00 75 1006.1
20260506165542 26 63 0.0 0.0 0.00 0.00 0.00 82 1006.1
20260506165044 26 63 0.0 0.0 0.00 0.00 0.00 80 1006.1
20260506164538 26 63 0.0 0.0 0.00 0.00 0.00 80 1006.1
20260506164041 26 63 0.0 0.0 0.00 0.00 0.00 79 1006.1
20260506163532 26 360 0.0 0.0 0.00 0.00 0.00 81 1006.1
20260506163039 26 46 0.0 0.0 0.00 0.00 0.00 81 1006.2
20260506162544 26 44 0.0 0.0 0.00 0.00 0.00 83 1006.2
20260506162046 26 18 0.0 0.0 0.00 0.00 0.00 82 1006.2
20260506161528 26 34 0.0 0.0 0.00 0.00 0.00 83 1006.3
20260506161036 25 35 0.0 0.0 0.00 0.00 0.00 86 1006.3
20260506160529 25 44 0.0 0.0 0.00 0.00 0.00 85 1006.3
20260506160030 25 360 0.0 0.0 0.00 0.00 0.00 86 1006.1
20260506155533 25 28 0.0 0.0 0.00 0.00 0.00 86 1006.1
20260506155036 25 26 0.0 0.0 0.00 0.00 0.00 86 1006.1
20260506154527 25 146 0.0 0.0 0.00 0.00 0.00 87 1005.8
20260506154032 25 146 0.0 0.0 0.00 0.00 0.00 88 1005.8
20260506153536 25 146 0.0 0.0 0.00 0.00 0.00 87 1005.8
20260506153036 25 146 0.0 0.0 0.00 0.00 0.00 87 1005.2
20260506152538 25 146 0.0 0.0 0.00 0.00 0.00 87 1005.2
20260506152101 25 146 0.0 0.0 0.00 0.00 0.00 87 1005.2
20260506151540 25 146 0.0 0.0 0.00 0.00 0.00 88 1005.1
20260506151055 24 146 0.0 0.0 0.00 0.00 0.00 88 1005.1
20260506150535 24 146 0.0 0.0 0.00 0.00 0.00 88 1005.1
20260506150039 24 146 0.0 0.0 0.00 0.00 0.00 88 1005.1
20260506145601 24 146 0.0 0.0 0.00 0.00 0.00 88 1005.1
20260506145051 24 146 0.0 0.0 0.00 0.00 0.00 88 1005.1
20260506144531 24 146 0.0 0.0 0.00 0.00 0.00 88 1005.1
20260506144027 24 146 0.0 0.0 0.00 0.00 0.00 88 1005.1
20260506143531 24 146 0.0 0.0 0.00 0.00 0.00 88 1005.1
20260506143034 24 146 0.0 0.0 0.00 0.00 0.00 88 1005.1
20260506142538 24 146 0.0 0.0 0.00 0.00 0.00 88 1005.1
20260506142041 24 146 0.0 0.0 0.00 0.00 0.00 87 1005.1
20260506141528 24 147 0.0 0.0 0.00 0.00 0.00 87 1004.6
20260506141044 24 147 0.0 0.0 0.00 0.00 0.00 88 1004.6
20260506140555 24 147 0.0 0.0 0.00 0.00 0.00 87 1004.6
20260506140040 24 360 0.0 0.0 0.00 0.00 0.00 88 1004.1
20260506135604 24 150 0.0 0.0 0.00 0.00 0.00 88 1004.1
20260506135027 24 150 0.0 0.0 0.00 0.00 0.00 88 1004.1
20260506134530 24 150 0.0 0.0 0.00 0.00 0.00 89 1003.9
20260506134036 24 150 0.0 0.0 0.00 0.00 0.00 88 1003.9
20260506133542 24 150 0.0 0.0 0.00 0.00 0.00 88 1003.9
20260506133044 24 150 0.0 0.0 0.00 0.00 0.00 88 1003.8
20260506132536 24 150 0.0 0.0 0.00 0.00 0.00 89 1003.8
20260506132039 23 150 0.0 0.0 0.00 0.00 0.00 89 1003.8
20260506131603 23 150 0.0 0.0 0.00 0.00 0.00 89 1003.6
20260506131056 23 145 0.0 0.0 0.00 0.00 0.00 89 1003.6
20260506130529 23 155 0.0 0.0 0.00 0.00 0.00 89 1003.6
20260506130021 23 155 0.0 0.0 0.00 0.00 0.00 90 1003.6
20260506125529 23 155 0.0 0.0 0.00 0.00 0.00 90 1003.6
20260506125035 23 155 0.0 0.0 0.00 0.00 0.00 90 1003.6
20260506124537 23 155 0.0 0.0 0.00 0.00 0.00 90 1003.6
20260506124040 23 155 0.0 0.0 0.00 0.00 0.00 90 1003.6
20260506123547 23 155 0.0 0.0 0.00 0.00 0.00 90 1003.6
20260506123046 23 155 0.0 0.0 0.00 0.00 0.00 90 1003.5
20260506122548 23 155 0.0 0.0 0.00 0.00 0.00 90 1003.5
20260506122030 23 155 0.0 0.0 0.00 0.00 0.00 90 1003.5
20260506121532 23 155 0.0 0.0 0.00 0.00 0.00 90 1003.6
20260506121046 23 155 0.0 0.0 0.00 0.00 0.00 90 1003.6
20260506120550 23 155 0.0 0.0 0.00 0.00 0.00 90 1003.6
20260506120032 23 155 0.0 0.0 0.00 0.00 0.00 90 1003.4
20260506115526 23 155 0.0 0.0 0.00 0.00 0.00 90 1003.4
20260506115029 23 155 0.0 0.0 0.00 0.00 0.00 90 1003.4
20260506114533 23 155 0.0 0.0 0.00 0.00 0.00 90 1003.4
20260506114029 23 155 0.0 0.0 0.00 0.00 0.00 90 1003.4
20260506113551 23 155 0.0 0.0 0.00 0.00 0.00 90 1003.4
20260506113033 23 155 0.0 0.0 0.00 0.00 0.00 90 1003.2
20260506112555 23 155 0.0 0.0 0.00 0.00 0.00 89 1003.2
20260506112057 23 155 0.0 0.0 0.00 0.00 0.00 89 1003.2
20260506111541 23 155 0.0 0.0 0.00 0.00 0.00 89 1003.4
20260506111055 23 155 0.0 0.0 0.00 0.00 0.00 89 1003.4
20260506110605 23 155 0.0 0.0 0.00 0.00 0.00 89 1003.4
20260506110046 23 155 0.0 0.0 0.00 0.00 0.00 89 1003.1
20260506105529 23 155 0.0 0.0 0.00 0.00 0.00 89 1003.1
20260506105035 23 155 0.0 0.0 0.00 0.00 0.00 89 1003.1
20260506104536 23 155 0.0 0.0 0.00 0.00 0.00 88 1003.1
20260506104100 23 155 0.0 0.0 0.00 0.00 0.00 88 1003.1
20260506103529 23 156 0.0 0.0 0.00 0.00 0.00 88 1003.1
20260506103039 23 155 0.0 0.0 0.00 0.00 0.00 88 1003.1
20260506102541 23 155 0.0 0.0 0.00 0.00 0.00 88 1003.1
20260506102104 23 155 0.0 0.0 0.00 0.00 0.00 88 1003.1
20260506101524 23 155 0.0 0.0 0.00 0.00 0.00 88 1003.0
20260506101042 23 154 0.0 0.0 0.00 0.00 0.00 88 1003.0
20260506100532 23 155 0.0 0.0 0.00 0.00 0.00 88 1003.0
20260506100035 23 217 0.0 0.0 0.00 0.00 0.00 88 1003.0
20260506095543 23 217 0.0 0.0 0.00 0.00 0.00 88 1003.0
20260506095046 23 240 0.0 0.0 0.00 0.00 0.00 88 1003.0
20260506094529 23 173 0.0 0.0 0.00 0.00 0.00 88 1003.0
20260506094035 24 149 0.0 0.0 0.00 0.00 0.00 88 1003.0
20260506093537 23 150 0.0 0.0 0.00 0.00 0.00 88 1003.0
20260506093033 24 150 0.0 0.0 0.00 0.00 0.00 88 1002.7
20260506092534 24 149 0.0 0.0 0.00 0.00 0.00 88 1002.7
20260506092030 24 149 0.0 0.0 0.00 0.00 0.00 88 1002.7
20260506091535 24 149 1.6 0.0 0.00 0.00 0.00 87 1002.9
20260506091049 24 148 1.6 0.0 0.00 0.00 0.00 87 1002.9
20260506090540 24 148 0.0 0.0 0.00 0.00 0.00 87 1002.9
20260506090043 24 191 0.0 0.0 0.00 0.00 0.00 87 1002.8
20260506085544 24 191 0.0 0.0 0.00 0.00 0.00 87 1002.8
20260506085047 24 195 1.6 0.0 0.00 0.00 0.00 87 1002.8
20260506084529 24 140 1.6 0.0 0.00 0.00 0.00 87 1002.6
20260506084040 24 137 1.6 0.0 0.00 0.00 0.00 87 1002.6
20260506083603 24 171 0.0 0.0 0.00 0.00 0.00 87 1002.6
20260506083038 24 185 0.0 0.0 0.00 0.00 0.00 87 1002.7
20260506082539 24 184 0.0 0.0 0.00 0.00 0.00 87 1002.7
20260506082103 24 186 1.6 0.0 0.00 0.00 0.00 87 1002.7
20260506081548 24 176 1.6 0.0 0.00 0.00 0.00 87 1003.0
20260506081044 24 179 0.0 0.0 0.00 0.00 0.00 87 1003.0
20260506080539 24 179 0.0 0.0 0.00 0.00 0.00 87 1003.0
20260506073043 24 171 1.6 0.0 0.00 0.00 0.00 86 1003.1
20260506072535 24 146 3.2 0.0 0.00 0.00 0.00 87 1003.1
20260506072021 24 139 3.2 0.0 0.00 0.00 0.00 86 1003.1
20260506071530 24 145 1.6 0.0 0.00 0.00 0.00 87 1003.4
20260506071037 24 82 1.6 0.0 0.00 0.00 0.00 87 1003.4
20260506070531 24 165 1.6 0.0 0.00 0.00 0.00 87 1003.4
20260506062023 24 167 1.6 0.0 0.00 0.00 0.00 86 1003.6
20260506061531 24 141 0.0 0.0 0.00 0.00 0.00 86 1003.6
20260506061052 24 141 1.6 0.0 0.00 0.00 0.00 86 1003.6
20260506060545 24 143 1.6 0.0 0.00 0.00 0.00 86 1003.6
20260506051102 25 148 3.2 0.0 0.00 0.00 0.00 85 1003.6
20260506050531 25 154 1.6 0.0 0.00 0.00 0.00 85 1003.6
20260506045028 25 167 1.6 0.0 0.00 0.00 0.00 85 1003.6
20260506044537 25 157 1.6 0.0 0.00 0.00 0.00 85 1003.6
20260506044043 25 163 3.2 0.0 0.00 0.00 0.00 84 1003.6
20260506043526 25 150 4.8 0.0 0.00 0.00 0.00 84 1003.6
20260506043052 25 113 3.2 0.0 0.00 0.00 0.00 84 1003.6
20260506042532 25 165 3.2 0.0 0.00 0.00 0.00 85 1003.6
20260506042031 25 120 1.6 0.0 0.00 0.00 0.00 84 1003.6
20260506041533 25 131 0.0 0.0 0.00 0.00 0.00 85 1003.4
20260506041046 25 131 1.6 0.0 0.00 0.00 0.00 85 1003.4
20260506040549 25 151 1.6 0.0 0.00 0.00 0.00 84 1003.4
20260506040033 25 152 1.6 0.0 0.00 0.00 0.00 84 1003.2
20260506035535 25 150 1.6 0.0 0.00 0.00 0.00 84 1003.2
20260506035038 25 149 1.6 0.0 0.00 0.00 0.00 84 1003.2
20260506034544 25 146 1.6 0.0 0.00 0.00 0.00 84 1003.0
20260506034027 25 134 0.0 0.0 0.00 0.00 0.00 84 1003.0
20260506033548 25 134 1.6 0.0 0.00 0.00 0.00 84 1003.0
20260506033030 25 134 1.6 0.0 0.00 0.00 0.00 84 1002.9
20260506032531 25 134 1.6 0.0 0.00 0.00 0.00 84 1002.9
20260506032046 25 134 3.2 0.0 0.00 0.00 0.00 84 1002.9
20260506031528 25 124 3.2 0.0 0.00 0.00 0.00 84 1002.5
20260506031040 25 125 1.6 0.0 0.00 0.00 0.00 84 1002.5
20260506030551 25 158 1.6 0.0 0.00 0.00 0.00 84 1002.5
20260506030024 25 150 1.6 0.0 0.00 0.00 0.00 83 1002.5
20260506025532 25 151 0.0 0.0 0.00 0.00 0.00 83 1002.5
20260506025039 25 139 0.0 0.0 0.00 0.00 0.00 83 1002.5
20260506024534 25 141 0.0 0.0 0.00 0.00 0.00 83 1002.2
20260506024036 26 141 0.0 0.0 0.00 0.00 0.00 83 1002.2
20260506023044 26 143 0.0 0.0 0.00 0.00 0.00 82 1002.0
20260506022526 26 142 1.6 0.0 0.00 0.00 0.00 82 1002.0
20260506022033 26 143 1.6 0.0 0.00 0.00 0.00 82 1002.0
20260506021539 25 143 0.0 0.0 0.00 0.00 0.00 82 1001.9
20260506020042 25 236 0.0 0.0 0.00 0.00 0.00 82 1001.6
20260506015607 25 236 0.0 0.0 0.00 0.00 0.00 82 1001.6